| time (UTC) | temp F | wind direction | speed knots | gust knots | rain 1hr in | rain 24hr in | rain mn in | humidity % | barometer mb |
| 20260903224004 | 71 | 10 | 0.9 | 1.7 | 0.00 | 0.02 | 0.02 | 87 | 1014.1 |
| 20260903223003 | 72 | 6 | 0.9 | 2.6 | 0.00 | 0.02 | 0.02 | 88 | 1014.2 |
| 20260903222003 | 72 | 103 | 1.7 | 2.6 | 0.00 | 0.02 | 0.02 | 84 | 1014.2 |
| 20260903221003 | 73 | 29 | 1.7 | 2.6 | 0.00 | 0.02 | 0.02 | 84 | 1014.3 |
| 20260903220004 | 72 | 109 | 0.9 | 2.6 | 0.00 | 0.02 | 0.02 | 87 | 1014.5 |
| 20260903215004 | 73 | 68 | 0.9 | 2.6 | 0.00 | 0.02 | 0.02 | 86 | 1014.5 |
| 20260903214004 | 73 | 81 | 1.7 | 2.6 | 0.00 | 0.02 | 0.02 | 87 | 1014.4 |
| 20260903212004 | 72 | 48 | 1.7 | 2.6 | 0.00 | 0.02 | 0.02 | 88 | 1014.2 |
| 20260903211003 | 72 | 311 | 1.7 | 2.6 | 0.00 | 0.02 | 0.02 | 89 | 1014.5 |
| 20260903210003 | 71 | 62 | 0.9 | 2.6 | 0.00 | 0.02 | 0.02 | 90 | 1014.5 |
| 20260903205004 | 71 | 82 | 1.7 | 4.3 | 0.00 | 0.02 | 0.02 | 91 | 1014.4 |
| 20260903203004 | 71 | 58 | 0.9 | 4.3 | 0.00 | 0.02 | 0.02 | 91 | 1014.3 |
| 20260903201004 | 71 | 195 | 0.9 | 4.3 | 0.00 | 0.02 | 0.02 | 92 | 1014.8 |
| 20260903195003 | 71 | 262 | 0.9 | 4.3 | 0.00 | 0.02 | 0.02 | 89 | 1014.7 |
| 20260903194004 | 71 | 48 | 1.7 | 4.3 | 0.00 | 0.02 | 0.02 | 91 | 1014.9 |
| 20260903193004 | 72 | 300 | 0.0 | 1.7 | 0.00 | 0.02 | 0.02 | 89 | 1015.2 |
| 20260903192004 | 71 | 160 | 0.9 | 2.6 | 0.00 | 0.02 | 0.02 | 91 | 1014.9 |
| 20260903191004 | 71 | 34 | 0.9 | 2.6 | 0.00 | 0.02 | 0.02 | 92 | 1014.9 |
| 20260903190004 | 70 | 41 | 0.9 | 2.6 | 0.00 | 0.02 | 0.02 | 93 | 1015.0 |
| 20260903185003 | 71 | 328 | 0.9 | 5.2 | 0.00 | 0.02 | 0.02 | 91 | 1015.3 |
| 20260903184004 | 71 | 30 | 0.9 | 6.1 | 0.00 | 0.02 | 0.02 | 89 | 1015.0 |
| 20260903183004 | 72 | 337 | 1.7 | 8.7 | 0.00 | 0.02 | 0.02 | 89 | 1014.8 |
| 20260903182004 | 72 | 83 | 0.9 | 4.3 | 0.00 | 0.02 | 0.02 | 91 | 1014.5 |
| 20260903181004 | 71 | 91 | 1.7 | 6.1 | 0.00 | 0.02 | 0.02 | 94 | 1014.4 |
| 20260903180003 | 70 | 26 | 0.9 | 4.3 | 0.01 | 0.02 | 0.02 | 96 | 1014.6 |
| 20260903175003 | 69 | 81 | 1.7 | 2.6 | 0.02 | 0.02 | 0.02 | 97 | 1014.6 |
| 20260903174003 | 69 | 338 | 1.7 | 4.3 | 0.02 | 0.02 | 0.02 | 98 | 1014.6 |
| 20260903173004 | 68 | 104 | 0.9 | 1.7 | 0.02 | 0.02 | 0.02 | 99 | 1014.6 |
| 20260903172004 | 67 | 22 | 0.9 | 1.7 | 0.02 | 0.02 | 0.02 | 99 | 1014.4 |
| 20260903171003 | 67 | 302 | 0.9 | 1.7 | 0.01 | 0.01 | 0.01 | 99 | 1015.3 |
| 20260903170004 | 67 | 345 | 0.9 | 2.6 | 0.01 | 0.01 | 0.01 | 99 | 1015.2 |
| 20260903165004 | 66 | 294 | 0.9 | 1.7 | 0.00 | 0.00 | 0.00 | 99 | 1015.6 |
| 20260903164003 | 66 | 12 | 1.7 | 1.7 | 0.00 | 0.00 | 0.00 | 98 | 1015.6 |
| 20260903163003 | 67 | 314 | 0.9 | 1.7 | 0.00 | 0.00 | 0.00 | 98 | 1015.9 |
| 20260903162004 | 67 | 348 | 0.9 | 1.7 | 0.00 | 0.00 | 0.00 | 97 | 1015.4 |
| 20260903161003 | 67 | 336 | 1.7 | 1.7 | 0.00 | 0.00 | 0.00 | 97 | 1015.5 |
| 20260903160004 | 67 | 310 | 0.0 | 0.9 | 0.00 | 0.00 | 0.00 | 96 | 1015.3 |
| 20260903155004 | 67 | 340 | 0.0 | 0.9 | 0.00 | 0.00 | 0.00 | 96 | 1015.3 |
| 20260903153004 | 67 | 348 | 0.9 | 0.9 | 0.00 | 0.00 | 0.00 | 93 | 1015.6 |
| 20260903152003 | 68 | 26 | 0.9 | 1.7 | 0.00 | 0.00 | 0.00 | 92 | 1015.4 |
| 20260903151004 | 68 | 312 | 1.7 | 1.7 | 0.00 | 0.00 | 0.00 | 92 | 1015.1 |
| 20260903150004 | 68 | 14 | 0.0 | 1.7 | 0.00 | 0.00 | 0.00 | 92 | 1015.1 |
| 20260903144004 | 68 | 299 | 0.9 | 1.7 | 0.00 | 0.00 | 0.00 | 91 | 1014.7 |
| 20260903143004 | 68 | 348 | 0.9 | 2.6 | 0.00 | 0.00 | 0.00 | 91 | 1014.7 |
| 20260903142004 | 68 | 53 | 0.9 | 1.7 | 0.00 | 0.00 | 0.00 | 91 | 1014.5 |
| 20260903141004 | 67 | 35 | 0.9 | 1.7 | 0.00 | 0.00 | 0.00 | 91 | 1014.6 |
| 20260903140004 | 67 | 1 | 0.9 | 1.7 | 0.00 | 0.00 | 0.00 | 92 | 1014.8 |
| 20260903135003 | 67 | 349 | 0.0 | 1.7 | 0.00 | 0.00 | 0.00 | 92 | 1014.9 |
| 20260903134004 | 66 | 10 | 0.9 | 0.9 | 0.00 | 0.00 | 0.00 | 92 | 1015.0 |
| 20260903133004 | 66 | 24 | 0.0 | 1.7 | 0.00 | 0.00 | 0.00 | 92 | 1014.8 |
| 20260903132004 | 66 | 3 | 0.9 | 1.7 | 0.00 | 0.00 | 0.00 | 92 | 1014.9 |
| 20260903131004 | 66 | 314 | 0.9 | 1.7 | 0.00 | 0.00 | 0.00 | 93 | 1014.9 |
| 20260903130004 | 65 | 16 | 0.9 | 1.7 | 0.00 | 0.00 | 0.00 | 93 | 1014.8 |
| 20260903125004 | 65 | 6 | 0.9 | 1.7 | 0.00 | 0.00 | 0.00 | 93 | 1014.9 |
| 20260903124004 | 64 | 25 | 0.9 | 1.7 | 0.00 | 0.01 | 0.00 | 94 | 1014.9 |
| 20260903123004 | 64 | 320 | 0.9 | 1.7 | 0.00 | 0.01 | 0.00 | 94 | 1015.0 |
| 20260903122004 | 63 | 14 | 0.9 | 1.7 | 0.00 | 0.01 | 0.00 | 94 | 1014.8 |
| 20260903121003 | 63 | 3 | 0.9 | 1.7 | 0.00 | 0.01 | 0.00 | 95 | 1015.0 |
| 20260903114004 | 62 | 31 | 0.9 | 1.7 | 0.00 | 0.02 | 0.00 | 96 | 1015.0 |
| 20260903112004 | 62 | 17 | 0.0 | 1.7 | 0.00 | 0.02 | 0.00 | 96 | 1014.9 |
| 20260903111004 | 62 | 28 | 0.9 | 1.7 | 0.00 | 0.03 | 0.00 | 96 | 1014.8 |
| 20260903110004 | 62 | 0 | 0.9 | 1.7 | 0.00 | 0.06 | 0.00 | 96 | 1014.7 |
| 20260903105004 | 62 | 11 | 0.9 | 1.7 | 0.00 | 0.08 | 0.00 | 96 | 1014.7 |
| 20260903104005 | 62 | 15 | 0.9 | 1.7 | 0.00 | 0.09 | 0.00 | 97 | 1014.4 |
| 20260903102003 | 62 | 16 | 0.9 | 1.7 | 0.00 | 0.12 | 0.00 | 98 | 1014.6 |
| 20260903101003 | 62 | 29 | 0.9 | 1.7 | 0.00 | 0.15 | 0.00 | 99 | 1015.0 |
| 20260903100004 | 61 | 357 | 0.9 | 0.9 | 0.00 | 0.15 | 0.00 | 99 | 1014.8 |
| 20260903095004 | 61 | 16 | 0.9 | 0.9 | 0.00 | 0.15 | 0.00 | 99 | 1014.9 |
| 20260903094004 | 61 | 8 | 0.9 | 1.7 | 0.00 | 0.15 | 0.00 | 99 | 1014.5 |
| 20260903092004 | 61 | 27 | 0.9 | 0.9 | 0.00 | 0.15 | 0.00 | 99 | 1014.3 |
| 20260903091004 | 62 | 18 | 0.9 | 1.7 | 0.00 | 0.15 | 0.00 | 99 | 1014.4 |
| 20260903090004 | 61 | 14 | 0.9 | 0.9 | 0.00 | 0.15 | 0.00 | 99 | 1014.4 |
| 20260903085004 | 61 | 19 | 0.9 | 0.9 | 0.00 | 0.15 | 0.00 | 99 | 1014.2 |
| 20260903084004 | 61 | 5 | 0.9 | 1.7 | 0.00 | 0.15 | 0.00 | 99 | 1014.5 |
| 20260903083004 | 61 | 15 | 0.9 | 0.9 | 0.00 | 0.15 | 0.00 | 99 | 1014.5 |
| 20260903081004 | 62 | 36 | 0.9 | 1.7 | 0.00 | 0.15 | 0.00 | 99 | 1014.4 |
| 20260903080004 | 62 | 18 | 0.9 | 1.7 | 0.00 | 0.15 | 0.00 | 99 | 1014.4 |
| 20260903075004 | 62 | 346 | 0.0 | 0.9 | 0.00 | 0.15 | 0.00 | 99 | 1014.4 |
| 20260903074004 | 62 | 14 | 0.9 | 1.7 | 0.00 | 0.15 | 0.00 | 99 | 1014.4 |
| 20260903072004 | 62 | 345 | 0.0 | 0.9 | 0.00 | 0.15 | 0.00 | 99 | 1014.6 |
| 20260903071004 | 63 | 2 | 0.9 | 0.9 | 0.00 | 0.15 | 0.00 | 99 | 1014.5 |
| 20260903070004 | 63 | 22 | 0.0 | 1.7 | 0.00 | 0.15 | 0.00 | 99 | 1014.6 |
| 20260903065004 | 63 | 343 | 0.0 | 1.7 | 0.00 | 0.15 | 0.00 | 99 | 1014.7 |
| 20260903064004 | 63 | 41 | 0.0 | 1.7 | 0.00 | 0.15 | 0.00 | 99 | 1014.6 |
| 20260903063004 | 63 | 43 | 0.9 | 0.9 | 0.00 | 0.15 | 0.00 | 99 | 1014.7 |
| 20260903062004 | 63 | 47 | 0.0 | 0.9 | 0.00 | 0.15 | 0.00 | 99 | 1014.5 |
| 20260903061003 | 63 | 51 | 0.0 | 0.9 | 0.00 | 0.15 | 0.00 | 99 | 1014.5 |
| 20260903060004 | 63 | 31 | 0.9 | 1.7 | 0.00 | 0.15 | 0.00 | 99 | 1014.5 |
| 20260903055004 | 64 | 22 | 0.0 | 0.9 | 0.00 | 0.15 | 0.00 | 99 | 1014.5 |
| 20260903054004 | 64 | 24 | 0.0 | 0.9 | 0.00 | 0.15 | 0.00 | 99 | 1014.4 |
| 20260903053004 | 64 | 41 | 0.0 | 1.7 | 0.00 | 0.15 | 0.00 | 99 | 1014.3 |
| 20260903052004 | 64 | 35 | 0.0 | 1.7 | 0.00 | 0.15 | 0.00 | 99 | 1014.2 |
| 20260903051004 | 65 | 31 | 0.9 | 0.9 | 0.00 | 0.15 | 0.00 | 99 | 1014.3 |
| 20260903050003 | 65 | 34 | 0.0 | 0.9 | 0.00 | 0.15 | 0.00 | 99 | 1014.3 |
| 20260903045004 | 65 | 47 | 0.9 | 1.7 | 0.00 | 0.15 | 0.15 | 99 | 1014.2 |
| 20260903044004 | 65 | 23 | 0.9 | 1.7 | 0.00 | 0.15 | 0.15 | 99 | 1014.0 |
| 20260903043004 | 65 | 55 | 0.9 | 1.7 | 0.00 | 0.15 | 0.15 | 99 | 1014.0 |
| 20260903042004 | 65 | 19 | 0.9 | 1.7 | 0.00 | 0.15 | 0.15 | 99 | 1014.0 |
| 20260903041003 | 65 | 31 | 0.9 | 1.7 | 0.00 | 0.15 | 0.15 | 99 | 1014.0 |
| 20260903040004 | 66 | 3 | 0.0 | 1.7 | 0.00 | 0.15 | 0.15 | 99 | 1014.0 |
| 20260903035003 | 66 | 42 | 0.0 | 2.6 | 0.00 | 0.15 | 0.15 | 99 | 1013.9 |
| 20260903034004 | 66 | 4 | 0.9 | 1.7 | 0.00 | 0.15 | 0.15 | 99 | 1013.7 |
| 20260903032004 | 66 | 1 | 0.0 | 0.9 | 0.00 | 0.15 | 0.15 | 99 | 1013.6 |
| 20260903031004 | 66 | 5 | 0.0 | 0.9 | 0.00 | 0.15 | 0.15 | 99 | 1013.4 |
| 20260903030004 | 67 | 11 | 0.0 | 0.9 | 0.00 | 0.15 | 0.15 | 98 | 1013.5 |
| 20260903025004 | 67 | 322 | 0.0 | 0.9 | 0.00 | 0.15 | 0.15 | 98 | 1013.6 |
| 20260903024004 | 67 | 341 | 0.0 | 0.9 | 0.00 | 0.15 | 0.15 | 98 | 1013.5 |
| 20260903023004 | 67 | 1 | 0.0 | 0.9 | 0.00 | 0.15 | 0.15 | 98 | 1013.6 |
| 20260903022004 | 67 | 42 | 0.0 | 0.9 | 0.00 | 0.15 | 0.15 | 97 | 1013.4 |
| 20260903021004 | 67 | 47 | 0.0 | 0.9 | 0.00 | 0.15 | 0.15 | 97 | 1013.3 |
| 20260903015004 | 68 | 17 | 0.0 | 0.9 | 0.00 | 0.15 | 0.15 | 95 | 1013.0 |
| 20260903014003 | 68 | 345 | 0.0 | 0.0 | 0.00 | 0.15 | 0.15 | 95 | 1012.8 |
| 20260903013004 | 68 | 4 | 0.0 | 0.0 | 0.00 | 0.15 | 0.15 | 94 | 1013.0 |
| 20260903012004 | 69 | 15 | 0.0 | 0.9 | 0.00 | 0.15 | 0.15 | 93 | 1012.8 |
| 20260903011004 | 69 | 327 | 0.0 | 0.9 | 0.00 | 0.15 | 0.15 | 92 | 1012.7 |
| 20260903005004 | 71 | 0 | 0.0 | 0.9 | 0.00 | 0.15 | 0.15 | 91 | 1012.5 |
| 20260903004004 | 71 | 322 | 0.0 | 0.9 | 0.00 | 0.15 | 0.15 | 90 | 1012.5 |
| 20260903003004 | 72 | 339 | 0.0 | 0.9 | 0.00 | 0.15 | 0.15 | 89 | 1012.6 |
| 20260903002004 | 73 | 322 | 0.0 | 0.0 | 0.00 | 0.15 | 0.15 | 88 | 1012.6 |
| 20260903000004 | 76 | 356 | 0.0 | 0.9 | 0.00 | 0.15 | 0.15 | 84 | 1012.5 |
| 20260902235004 | 77 | 353 | 0.0 | 0.9 | 0.00 | 0.15 | 0.15 | 81 | 1012.5 |
| 20260902234003 | 78 | 33 | 0.0 | 0.9 | 0.00 | 0.15 | 0.15 | 76 | 1012.5 |
| 20260902233004 | 80 | 344 | 0.0 | 0.9 | 0.00 | 0.15 | 0.15 | 72 | 1012.5 |
| 20260902232004 | 81 | 299 | 0.0 | 1.7 | 0.00 | 0.15 | 0.15 | 69 | 1012.5 |
| 20260902231004 | 81 | 343 | 0.9 | 2.6 | 0.00 | 0.15 | 0.15 | 67 | 1012.7 |
| 20260902230004 | 82 | 322 | 0.9 | 2.6 | 0.00 | 0.15 | 0.15 | 67 | 1012.7 |
| 20260902225004 | 82 | 280 | 0.9 | 4.3 | 0.00 | 0.15 | 0.15 | 65 | 1012.7 |